GPS BIII-1 (PRN 04)

Last updated on Mon Sep 21 2026 00:03:20 GMT+0000 (Coordinated Universal Time)

1 43873U 18109A 26262.98442111 .00000023 00000+0 00000+0 0 9995 2 43873 55.7438 88.4468 0040336 196.2461 335.8843 2.00565512 56979
UTC large
Height (km)
Speed (km/s)
/
Latitude / Longitude
Inclination (degrees)
Orbital Period (minutes)
Azimuth
Elevation
Range (km)
Doppler Factor

Next 0 passes for location: London (51.5072 / 0.1276)

No passes found over London.
GPS BIII-1 (PRN 04)